Accueil
METAR-TAF:

METAR-TAF

Aéroports :

Montauk, New York, États-Unis

latitude: 41-04-23N, longitude: 071-55-24W, altitude: 2 m

Observation

Le bulletin a été fait il y a 29 minutes, à 18:54 UTC
Vent 6 kt de ouest
Température 27°C
Humidité 66%
Pression 1015 hPa

METAR: KMTP 151854Z AUTO 27006KT 27/20 A2998 RMK AO1 SLP152 T02720200

Heure: 15:23 (19:23 UTC)


TAF: absent

Observations et prévisions météorologiques de plus de 4000 aéroports (messages METAR et TAF).

Les stations disponibles sont représentées par des disques jaunes et rouges sur la carte.

Passer la souris dessus pour voir le nom de la station.

Cliquer dessus pour voir les observations et prévisions météorologiques.

Pour changer de carte: cliquez sur les boutons verts avec une croix noire pour zoomer, sur le bouton vert avec un tiret pour effectuer un zoom arrière, ou sur les flèches vertes pour les cartes adjacentes.


METAR-TAF: